Location: *
(46.3500°N, 10.9000°E)
Time: 20:23:48
(UTC+00:00)

Vanguard 2 Rocket - Pass Details

Date: 19 April 2021
Orbit: 553 x 3326 km, 32.9° (Epoch: 06 May)

Event Time Altitude Azimuth Distance (km) Brightness Sun altitude
Rises 20:14:56 0° 275° (W) 6,857 12.2 -19.5°
Reaches altitude 10° 20:24:53 10° 248° (WSW) 5,131 11.0 -20.7°
Maximum altitude 20:28:16 11° 234° (SW) 4,729 10.6 -21.1°
Drops below altitude 10° 20:31:20 10° 220° (SW) 4,522 10.4 -21.5°
Enters shadow 20:36:56 - 193° (SSW) 4,652 10.2 -22.2°
